Imperial, CA

10:58 AM PST on February 18, 2018 (GMT -0800)
Imperial County

Weather History for KIPL - April, 2013

Change the Weather History Date:

Monday, April 29, 2013

  Actual Average Record
Temperature  
Mean Temperature 86 °F -  
Max Temperature 106 °F 89 °F 106 °F (2013)
Min Temperature 68 °F 58 °F 45 °F (1970)
Cooling Degree Days 21    
Growing Degree Days 36 (Base 50)    
Moisture  
Dew Point 32 °F    
Average Humidity 17    
Maximum Humidity 35    
Minimum Humidity 4    
Precipitation  
Precipitation 0.00 in - - ()
Sea Level Pressure  
Sea Level Pressure 29.66 in    
Wind  
Wind Speed 6 mph (West)    
Max Wind Speed 18 mph    
Max Gust Speed 24 mph    
Visibility 9 miles    
Events      
Averages and records for this station are not official NWS values.
T = Trace of Precipitation, MM = Missing Value Source: NWS Daily Summary

Daily Weather History Graph

Daily Weather History Graph

Search for Another Location

Airport or City:

Trip Planner

Search our weather history database for the weather conditions in past years. The results will help you decide how hot, cold, wet, or windy it might be!

Date:

Astronomy

Apr. 29, 2013 Rise Set
Actual Time 5:56 AM PDT 7:22 PM PDT
Civil Twilight 5:30 AM PDT 7:49 PM PDT
Nautical Twilight 4:59 AM PDT 8:20 PM PDT
Astronomical Twilight 4:26 AM PDT 8:53 PM PDT
Moon 11:46 PM PDT (4/29) 9:27 AM PDT (4/29)
Length of Visible Light 14h 18m
Length of Day
13h 26m
Waning Gibbous, 79% of the Moon is Illuminated
Apr 29
Waning Gibbous
May 2
Last Quarter
May 9
New
May 17
First Quarter
May 24
Full

Hourly Weather History & Observations

Time (PDT) Temp. Dew Point Humidity Pressure Visibility Wind Dir Wind Speed Gust Speed Precip Events Conditions
12:53 AM 73.9 °F 37.0 °F 26% 29.71 in 10.0 mi WSW 6.9 mph - N/A   Clear
1:53 AM 71.1 °F 39.0 °F 31% 29.70 in 10.0 mi West 6.9 mph - N/A   Clear
2:53 AM 69.1 °F 37.0 °F 31% 29.69 in 10.0 mi West 3.5 mph - N/A   Clear
3:53 AM 68.0 °F 37.0 °F 32% 29.69 in 10.0 mi WNW 3.5 mph - N/A   Clear
4:53 AM 72.0 °F 33.1 °F 24% 29.69 in 10.0 mi West 9.2 mph - N/A   Clear
5:53 AM 71.1 °F 35.1 °F 27% 29.69 in 10.0 mi West 5.8 mph - N/A   Clear
6:53 AM 69.1 °F 37.9 °F 32% 29.70 in 10.0 mi West 3.5 mph - N/A   Clear
7:53 AM 75.9 °F 46.0 °F 35% 29.71 in 10.0 mi West 3.5 mph - N/A   Clear
8:53 AM 86.0 °F 42.1 °F 21% 29.71 in 10.0 mi West 3.5 mph - N/A   Clear
9:53 AM 91.9 °F 39.0 °F 16% 29.71 in 3.0 mi Calm Calm - N/A   Haze
10:06 AM 93.2 °F 37.4 °F 14% 29.71 in 2.5 mi Calm Calm - N/A   Haze
10:15 AM 93.2 °F 33.8 °F 12% 29.71 in 6.0 mi Calm Calm - N/A   Haze
10:53 AM 95.0 °F 27.0 °F 9% 29.71 in 10.0 mi SSW 3.5 mph - N/A   Clear
11:53 AM 98.1 °F 26.1 °F 8% 29.70 in 10.0 mi West 3.5 mph - N/A   Clear
12:53 PM 100.0 °F 23.0 °F 6% 29.68 in 10.0 mi Variable 3.5 mph - N/A   Clear
1:53 PM 102.0 °F 19.0 °F 5% 29.65 in 10.0 mi Variable 3.5 mph - N/A   Clear
2:53 PM 104.0 °F 14.0 °F 4% 29.62 in 10.0 mi Variable 3.5 mph - N/A   Clear
3:53 PM 104.0 °F 25.0 °F 6% 29.60 in 10.0 mi WSW 3.5 mph - N/A   Clear
4:53 PM 102.9 °F 27.0 °F 7% 29.58 in 10.0 mi WSW 6.9 mph - N/A   Clear
5:53 PM 97.0 °F 37.9 °F 13% 29.57 in 10.0 mi WSW 12.7 mph - N/A   Clear
6:53 PM 91.9 °F 33.1 °F 12% 29.57 in 10.0 mi West 15.0 mph - N/A   Clear
7:53 PM 89.1 °F 28.9 °F 12% 29.58 in 10.0 mi West 16.1 mph - N/A   Clear
8:53 PM 84.9 °F 33.1 °F 16% 29.60 in 10.0 mi WSW 15.0 mph - N/A   Clear
9:53 PM 82.9 °F 28.9 °F 14% 29.62 in 10.0 mi West 13.8 mph - N/A   Clear
10:53 PM 82.0 °F 28.9 °F 14% 29.62 in 10.0 mi West 16.1 mph - N/A   Clear
11:53 PM 82.0 °F 21.0 °F 10% 29.63 in 10.0 mi West 18.4 mph 24.2 mph N/A   Clear